Time,TemperatureF,DewpointF,PressureIn,WindDirection,WindDirectionDegrees,WindSpeedMPH,WindSpeedGustMPH,Humidity,HourlyPrecipIn,Conditions,Clouds,dailyrainin,SoftwareType,DateUTC
2013-01-11 00:14:00,48.5,48.0,29.79,ESE,102,3.0,3.0,99,0.24,,,0.85,weatherlink.com 1.10,2013-01-11 06:14:00,
2013-01-11 00:29:00,49.3,49.0,29.77,East,79,4.0,4.0,99,0.10,,,0.85,weatherlink.com 1.10,2013-01-11 06:29:00,
2013-01-11 00:45:00,49.7,50.0,29.73,East,80,5.0,7.0,99,0.03,,,0.86,weatherlink.com 1.10,2013-01-11 06:45:00,
2013-01-11 01:00:00,50.6,50.0,29.72,SE,142,2.0,9.0,99,0.02,,,0.87,weatherlink.com 1.10,2013-01-11 07:00:00,
2013-01-11 01:15:00,51.0,51.0,29.71,ESE,115,3.0,6.0,99,0.02,,,0.87,weatherlink.com 1.10,2013-01-11 07:15:00,
2013-01-11 01:30:00,51.3,51.0,29.72,ESE,120,2.0,6.0,99,0.02,,,0.87,weatherlink.com 1.10,2013-01-11 07:30:00,
2013-01-11 01:45:00,50.6,50.0,29.74,SSW,204,2.0,3.0,99,0.01,,,0.87,weatherlink.com 1.10,2013-01-11 07:45:00,
2013-01-11 02:00:00,50.8,51.0,29.74,SW,218,2.0,3.0,99,0.00,,,0.87,weatherlink.com 1.10,2013-01-11 08:00:00,
2013-01-11 02:15:00,51.3,51.0,29.74,SW,217,3.0,8.0,99,0.00,,,0.87,weatherlink.com 1.10,2013-01-11 08:15:00,
2013-01-11 02:30:00,51.6,51.0,29.76,South,189,7.0,10.0,99,0.00,,,0.87,weatherlink.com 1.10,2013-01-11 08:30:00,
2013-01-11 02:45:00,51.7,52.0,29.76,West,262,5.0,12.0,99,0.00,,,0.87,weatherlink.com 1.10,2013-01-11 08:45:00,
2013-01-11 03:00:00,51.1,51.0,29.75,WSW,242,8.0,13.0,99,0.00,,,0.87,weatherlink.com 1.10,2013-01-11 09:00:00,
2013-01-11 03:15:00,50.2,50.0,29.75,WNW,282,3.0,11.0,99,0.00,,,0.87,weatherlink.com 1.10,2013-01-11 09:15:00,
2013-01-11 03:30:00,49.7,50.0,29.75,WSW,240,5.0,14.0,99,0.00,,,0.87,weatherlink.com 1.10,2013-01-11 09:30:00,
2013-01-11 03:45:00,49.4,49.0,29.73,WSW,252,3.0,13.0,99,0.00,,,0.00,weatherlink.com 1.10,2013-01-11 09:45:00,
2013-01-11 04:00:00,49.2,49.0,29.74,WNW,293,11.0,11.0,99,0.00,,,0.00,weatherlink.com 1.10,2013-01-11 10:00:00,
2013-01-11 04:16:00,49.0,49.0,29.74,West,263,10.0,14.0,98,0.00,,,0.00,weatherlink.com 1.10,2013-01-11 10:16:00,
2013-01-11 04:30:00,49.0,49.0,29.74,WSW,240,5.0,13.0,98,0.00,,,0.00,weatherlink.com 1.10,2013-01-11 10:30:00,
2013-01-11 04:45:00,48.7,48.0,29.74,West,264,3.0,9.0,98,0.00,,,0.00,weatherlink.com 1.10,2013-01-11 10:45:00,
2013-01-11 05:00:00,48.5,48.0,29.75,WSW,252,4.0,8.0,98,0.00,,,0.00,weatherlink.com 1.10,2013-01-11 11:00:00,
2013-01-11 05:15:00,48.5,48.0,29.76,West,281,7.0,12.0,98,0.00,,,0.00,weatherlink.com 1.10,2013-01-11 11:15:00,
2013-01-11 05:30:00,48.3,48.0,29.75,WSW,249,8.0,13.0,98,0.00,,,0.00,weatherlink.com 1.10,2013-01-11 11:30:00,
2013-01-11 05:45:00,48.2,48.0,29.75,SW,221,2.0,14.0,98,0.00,,,0.00,weatherlink.com 1.10,2013-01-11 11:45:00,
2013-01-11 06:00:00,48.3,48.0,29.76,West,269,4.0,9.0,98,0.00,,,0.00,weatherlink.com 1.10,2013-01-11 12:00:00,
2013-01-11 06:15:00,48.3,48.0,29.77,WSW,245,4.0,14.0,98,0.00,,,0.00,weatherlink.com 1.10,2013-01-11 12:15:00,
2013-01-11 06:30:00,48.3,48.0,29.78,SE,136,6.0,9.0,98,0.00,,,0.00,weatherlink.com 1.10,2013-01-11 12:30:00,
2013-01-11 06:45:00,48.1,47.0,29.79,West,260,5.0,11.0,97,0.00,,,0.00,weatherlink.com 1.10,2013-01-11 12:45:00,
2013-01-11 07:00:00,47.9,47.0,29.80,West,264,4.0,13.0,97,0.00,,,0.00,weatherlink.com 1.10,2013-01-11 13:00:00,
2013-01-11 07:15:00,47.8,47.0,29.80,West,269,7.0,10.0,97,0.00,,,0.00,weatherlink.com 1.10,2013-01-11 13:15:00,
2013-01-11 07:30:00,47.7,47.0,29.80,WSW,248,4.0,12.0,97,0.00,,,0.00,weatherlink.com 1.10,2013-01-11 13:30:00,
2013-01-11 07:45:00,47.8,47.0,29.81,WNW,291,7.0,11.0,97,0.00,,,0.00,weatherlink.com 1.10,2013-01-11 13:45:00,
2013-01-11 08:00:00,47.8,47.0,29.80,WSW,253,3.0,8.0,97,0.00,,,0.00,weatherlink.com 1.10,2013-01-11 14:00:00,
2013-01-11 08:15:00,47.9,47.0,29.80,WSW,243,2.0,7.0,97,0.00,,,0.00,weatherlink.com 1.10,2013-01-11 14:15:00,
2013-01-11 08:30:00,48.0,47.0,29.81,South,181,4.0,7.0,97,0.00,,,0.00,weatherlink.com 1.10,2013-01-11 14:30:00,
2013-01-11 08:45:00,48.2,47.0,29.82,SSW,201,5.0,7.0,97,0.00,,,0.00,weatherlink.com 1.10,2013-01-11 14:45:00,
2013-01-11 09:00:00,48.0,47.0,29.82,SSE,150,3.0,7.0,97,0.00,,,0.00,weatherlink.com 1.10,2013-01-11 15:00:00,
2013-01-11 09:15:00,47.6,47.0,29.82,South,174,6.0,8.0,97,0.00,,,0.00,weatherlink.com 1.10,2013-01-11 15:15:00,
2013-01-11 09:30:00,47.7,47.0,29.81,SSE,161,4.0,8.0,97,0.00,,,0.00,weatherlink.com 1.10,2013-01-11 15:30:00,
2013-01-11 09:45:00,48.2,48.0,29.80,South,190,8.0,10.0,98,0.00,,,0.00,weatherlink.com 1.10,2013-01-11 15:45:00,
2013-01-11 10:00:00,48.6,48.0,29.80,SSE,148,2.0,12.0,97,0.00,,,0.00,weatherlink.com 1.10,2013-01-11 16:00:00,
2013-01-11 10:15:00,49.2,48.0,29.80,SSE,152,4.0,11.0,97,0.00,,,0.00,weatherlink.com 1.10,2013-01-11 16:15:00,
2013-01-11 10:31:00,49.6,49.0,29.80,South,174,9.0,15.0,96,0.00,,,0.00,weatherlink.com 1.10,2013-01-11 16:31:00,
2013-01-11 10:46:00,49.8,49.0,29.79,SSW,197,10.0,17.0,96,0.00,,,0.00,weatherlink.com 1.10,2013-01-11 16:46:00,
2013-01-11 11:01:00,50.0,49.0,29.78,SSW,208,6.0,17.0,95,0.00,,,0.00,weatherlink.com 1.10,2013-01-11 17:01:00,
2013-01-11 11:16:00,50.7,49.0,29.79,South,174,12.0,15.0,94,0.00,,,0.00,weatherlink.com 1.10,2013-01-11 17:16:00,
2013-01-11 11:31:00,51.6,49.0,29.77,SW,221,5.0,18.0,92,0.00,,,0.00,weatherlink.com 1.10,2013-01-11 17:31:00,
2013-01-11 11:46:00,52.0,49.0,29.77,WSW,248,8.0,19.0,90,0.00,,,0.00,weatherlink.com 1.10,2013-01-11 17:46:00,
2013-01-11 12:01:00,52.6,50.0,29.75,South,183,11.0,15.0,90,0.00,,,0.00,weatherlink.com 1.10,2013-01-11 18:01:00,
2013-01-11 12:16:00,54.4,51.0,29.75,SSW,211,9.0,20.0,87,0.00,,,0.00,weatherlink.com 1.10,2013-01-11 18:16:00,
2013-01-11 12:31:00,55.4,51.0,29.74,South,186,15.0,16.0,85,0.00,,,0.00,weatherlink.com 1.10,2013-01-11 18:31:00,
2013-01-11 12:46:00,56.1,51.0,29.74,SSW,206,9.0,17.0,84,0.00,,,0.00,weatherlink.com 1.10,2013-01-11 18:46:00,
2013-01-11 13:01:00,56.5,51.0,29.72,ESE,119,9.0,18.0,83,0.00,,,0.00,weatherlink.com 1.10,2013-01-11 19:01:00,
2013-01-11 13:16:00,57.7,51.0,29.71,South,169,2.0,16.0,79,0.00,,,0.00,weatherlink.com 1.10,2013-01-11 19:16:00,
2013-01-11 13:31:00,57.9,51.0,29.72,South,181,9.0,21.0,79,0.00,,,0.00,weatherlink.com 1.10,2013-01-11 19:31:00,
2013-01-11 13:46:00,57.9,51.0,29.72,SSW,204,17.0,23.0,79,0.00,,,0.00,weatherlink.com 1.10,2013-01-11 19:46:00,
2013-01-11 14:01:00,58.0,52.0,29.71,SSE,162,9.0,17.0,79,0.00,,,0.00,weatherlink.com 1.10,2013-01-11 20:01:00,
2013-01-11 14:16:00,57.8,51.0,29.72,SE,133,6.0,19.0,79,0.00,,,0.00,weatherlink.com 1.10,2013-01-11 20:16:00,
2013-01-11 14:31:00,57.9,51.0,29.71,SW,221,8.0,21.0,77,0.00,,,0.00,weatherlink.com 1.10,2013-01-11 20:31:00,
2013-01-11 14:46:00,58.5,51.0,29.71,SSW,201,11.0,20.0,75,0.00,,,0.00,weatherlink.com 1.10,2013-01-11 20:46:00,
2013-01-11 15:01:00,57.5,50.0,29.71,SW,236,10.0,23.0,77,0.00,,,0.00,weatherlink.com 1.10,2013-01-11 21:01:00,
2013-01-11 15:16:00,56.9,50.0,29.70,SE,143,6.0,19.0,78,0.00,,,0.00,weatherlink.com 1.10,2013-01-11 21:16:00,
2013-01-11 15:32:00,56.3,50.0,29.70,SE,133,4.0,17.0,80,0.00,,,0.00,weatherlink.com 1.10,2013-01-11 21:32:00,
2013-01-11 15:46:00,56.3,51.0,29.70,ESE,121,7.0,11.0,81,0.00,,,0.00,weatherlink.com 1.10,2013-01-11 21:46:00,
2013-01-11 16:01:00,56.5,51.0,29.69,SE,136,9.0,11.0,81,0.00,,,0.00,weatherlink.com 1.10,2013-01-11 22:01:00,
2013-01-11 16:16:00,57.2,51.0,29.70,South,169,10.0,17.0,79,0.00,,,0.00,weatherlink.com 1.10,2013-01-11 22:16:00,
2013-01-11 16:31:00,57.1,50.0,29.69,SSW,205,15.0,19.0,78,0.00,,,0.00,weatherlink.com 1.10,2013-01-11 22:31:00,
2013-01-11 16:46:00,56.9,50.0,29.69,South,180,7.0,21.0,78,0.00,,,0.00,weatherlink.com 1.10,2013-01-11 22:46:00,
2013-01-11 17:01:00,56.5,50.0,29.69,SSE,165,17.0,17.0,79,0.00,,,0.00,weatherlink.com 1.10,2013-01-11 23:01:00,
2013-01-11 17:16:00,56.2,50.0,29.70,SE,146,6.0,20.0,80,0.00,,,0.00,weatherlink.com 1.10,2013-01-11 23:16:00,
2013-01-11 17:31:00,55.9,50.0,29.70,SSE,157,8.0,20.0,80,0.00,,,0.00,weatherlink.com 1.10,2013-01-11 23:31:00,
2013-01-11 17:46:00,55.7,50.0,29.71,SE,139,11.0,21.0,80,0.00,,,0.00,weatherlink.com 1.10,2013-01-11 23:46:00,
2013-01-11 18:02:00,55.5,50.0,29.70,SE,134,10.0,22.0,81,0.00,,,0.00,weatherlink.com 1.10,2013-01-12 00:02:00,
2013-01-11 18:17:00,55.4,49.0,29.70,SSW,207,7.0,19.0,80,0.00,,,0.00,weatherlink.com 1.10,2013-01-12 00:17:00,
2013-01-11 18:31:00,55.4,49.0,29.70,SW,232,8.0,16.0,80,0.00,,,0.00,weatherlink.com 1.10,2013-01-12 00:31:00,
2013-01-11 18:48:00,55.7,49.0,29.70,SE,125,9.0,19.0,79,0.00,,,0.00,weatherlink.com 1.10,2013-01-12 00:48:00,
2013-01-11 19:02:00,55.6,49.0,29.69,South,169,7.0,23.0,79,0.00,,,0.00,weatherlink.com 1.10,2013-01-12 01:02:00,
2013-01-11 19:17:00,55.7,49.0,29.70,SSE,162,8.0,20.0,78,0.00,,,0.00,weatherlink.com 1.10,2013-01-12 01:17:00,
2013-01-11 19:32:00,55.7,49.0,29.70,South,174,9.0,19.0,78,0.00,,,0.00,weatherlink.com 1.10,2013-01-12 01:32:00,
2013-01-11 19:47:00,55.3,49.0,29.69,SSW,205,14.0,21.0,79,0.00,,,0.00,weatherlink.com 1.10,2013-01-12 01:47:00,
2013-01-11 20:02:00,55.0,49.0,29.69,SSW,211,17.0,22.0,79,0.00,,,0.00,weatherlink.com 1.10,2013-01-12 02:02:00,
2013-01-11 20:17:00,54.7,49.0,29.69,South,190,10.0,21.0,80,0.00,,,0.00,weatherlink.com 1.10,2013-01-12 02:17:00,
2013-01-11 20:47:00,54.4,49.0,29.69,South,190,14.0,22.0,81,0.00,,,0.00,weatherlink.com 1.10,2013-01-12 02:47:00,
2013-01-11 21:02:00,54.1,49.0,29.70,South,173,12.0,20.0,82,0.00,,,0.00,weatherlink.com 1.10,2013-01-12 03:02:00,
2013-01-11 21:17:00,54.1,49.0,29.70,SSE,162,10.0,21.0,82,0.00,,,0.00,weatherlink.com 1.10,2013-01-12 03:17:00,
2013-01-11 21:32:00,54.0,49.0,29.70,ESE,113,9.0,18.0,82,0.00,,,0.00,weatherlink.com 1.10,2013-01-12 03:32:00,
2013-01-11 21:47:00,54.2,49.0,29.71,South,180,11.0,22.0,82,0.00,,,0.00,weatherlink.com 1.10,2013-01-12 03:47:00,
2013-01-11 22:02:00,54.1,49.0,29.71,SSE,155,9.0,18.0,82,0.00,,,0.00,weatherlink.com 1.10,2013-01-12 04:02:00,
2013-01-11 22:17:00,54.0,49.0,29.71,West,269,9.0,18.0,82,0.00,,,0.00,weatherlink.com 1.10,2013-01-12 04:17:00,
2013-01-11 22:32:00,54.0,49.0,29.70,South,169,10.0,19.0,82,0.00,,,0.00,weatherlink.com 1.10,2013-01-12 04:32:00,
2013-01-11 22:47:00,54.2,49.0,29.71,West,264,11.0,21.0,82,0.00,,,0.00,weatherlink.com 1.10,2013-01-12 04:47:00,
2013-01-11 23:03:00,54.4,49.0,29.72,SSE,149,9.0,23.0,81,0.00,,,0.00,weatherlink.com 1.10,2013-01-12 05:03:00,
2013-01-11 23:17:00,54.3,49.0,29.71,SE,140,8.0,24.0,81,0.00,,,0.00,weatherlink.com 1.10,2013-01-12 05:17:00,
2013-01-11 23:32:00,54.2,49.0,29.72,South,190,7.0,22.0,81,0.00,,,0.00,weatherlink.com 1.10,2013-01-12 05:32:00,
2013-01-11 23:47:00,54.1,49.0,29.72,South,191,10.0,22.0,82,0.00,,,0.00,weatherlink.com 1.10,2013-01-12 05:47:00,